sat.trackr.live / text

‹ back to catalog

STARLINK-35325

NORAD 66080 · 2025-235Y

PAYLOAD ACTIVE UNKNOWN

§ Identity

Operator
Country
US
Launch date
2025-10-19
Launch site
AFETR
Launch vehicle
Mass (kg)
RCS (m²)

Purposes: comms

External: N2YO · Heavens-Above · Gunter

§ Orbital elements

Epoch: 2026-05-24T23:43:17.518944Z

Period
94.11 min
Inclination
53.1589°
Eccentricity
0.0001075
Mean motion
15.30201861 rev/d
Perigee alt
474.5 km
Apogee alt
475.9 km
Semi-major
6,853.3 km
B*
6.8039e-4
RAAN
250.8336°
Arg perigee
85.4197°
Mean anomaly
274.6926°
Rev number
3,460

§ Raw data

STARLINK-353251 66080U 25235Y   26144.98839721  .00019847  00000+0  68039-3 0  99982 66080  53.1589 250.8336 0001075  85.4197 274.6926 15.30201861 34603

JSON: /api/v1/satellites/66080 · /tle

For live sub-satellite position, see the globe view (requires WebGL).

§ Visibility from observer

Set your observer location to see the next 7 days of passes ≥ 10°. The values pass through the URL so the page stays shareable.

No JS? Fill the form by hand. The geolocation button needs JavaScript.